Погода в Печерниках

Россия / Рязанская область     54°07′49″N   39°15′36″E
темп.,
°C
ветер,
м/с
пор.,
м/с
влажн.,
%
обл.,
%
осадки,
мм/ч
давл.,
гПа
погр.,
м
14 апреля, ср
ср1400:00+12юв5155617 0.0 1023311
03:00+9юв411685 0.0 1023181
06:00+8ююв36726 0.0 102292
09:00+13ююв5854100 0.0 1022330
12:00+18ююв5737100 0.0 1020829
15:00+19юв67305 0.0 10191504
18:00+17юв473864 0.0 1018195
21:00+13юв365195 0.0 101873
15 апреля, чт
чт1500:00+11юв3456100 0.0 101741
03:00+10юв2261100 0.0 101717
06:00+9вюв3464100 0.0 101748
09:00+13в4652100 0.0 1016237
12:00+15вюв4548100 0.0 1016699
15:00+18вюв344387 0.0 10151298
18:00+17всв355241 0.0 1014136
21:00+12в33685 0.1 101440
16 апреля, пт
пт1600:00+10всв227231 0.0 101510
03:00+10всв498085 0.1 1015160
06:00+9всв51185100 0.1 1016242
09:00+12всв697069 0.1 1017432
12:00+16всв675989 0.0 1017764
15:00+18в7848100 0.0 10171367
18:00+17вюв4952100 0.0 1016355
21:00+12ссв2278100 3.4 101828
17 апреля, сб
сб1700:00+11в488991 1.0 1019262
03:00+10всв6119186 1.1 1020364
06:00+8всв6119474 0.2 1021343
09:00+11всв7108061 0.0 1021563
12:00+14всв8106393 0.0 1023866
15:00+16в8105267 0.0 10231265
18:00+14всв8115688 0.0 10241027
21:00+11всв71362100 0.0 1026546
18 апреля, вс
вс1800:00+8всв6135783 0.0 1027413
03:00+6всв6126390 0.0 1028333
06:00+6всв6136583 0.0 1029372
09:00+9в710515 0.0 1029623
12:00+13в67393 0.0 10291285
15:00+14всв67415 0.0 10301799
18:00+13в46415 0.0 1029990
21:00+9в411635 0.0 1030263